Regional Weather Roundup
Issued by NWS

Home | Current Version | Previous Version | Graphics & Text | Print | Product List | Glossary On
Versions: 1 2 3 4 5 6 7 8 9 10 11 12 13 14 15 16 17 18 19 20 21 22 23 24 25 26 27 28 29 30 31 32 33 34 35 36 37 38 39 40 41 42 43 44 45 46 47 48 49 50
000
ASUS43 KDTX 221410
RWRMI
MICHIGAN HOURLY REGIONAL WEATHER ROUNDUP
NATIONAL WEATHER SERVICE DETROIT/PONTIAC MI
1000 AM EDT SUN OCT 22 2017

NOTE: "FAIR" INDICATES FEW OR NO CLOUDS BELOW 12,000 FEET WITH NO
SIGNIFICANT WEATHER AND/OR OBSTRUCTION TO VISIBILITY.

MIZ047>049-052>055-059>063-066>070-074>076-081>083-221500-
SOUTHEAST LOWER MICHIGAN

CITY           SKY/WX    TMP DP  RH WIND       PRES   REMARKS
ADRIAN         SUNNY     59  49  69 S9        30.17S
ALMA           SUNNY     64  47  55 S10G16    30.07S
ANN ARBOR      SUNNY     60  50  69 SE9       30.16F
BAD AXE        SUNNY     63  50  63 S13       30.14S
CARO           SUNNY     64  47  53 S9        30.11F
DETROIT CITY   SUNNY     63  54  72 S12       30.18R
DETROIT        MOSUNNY   63  54  72 S7        30.18S
FLINT          SUNNY     63  49  60 S13       30.13F
GROSSE ILE     SUNNY     63  56  80 S9        30.18S
HILLSDALE      SUNNY     59  46  63 S13G18    30.14S
HOWELL         SUNNY     62  49  63 S13       30.14S

CITY           SKY/WX    TMP DP  RH WIND       PRES   REMARKS
JACKSON        SUNNY     61  48  62 SE10      30.14R
LAMBERTVILLE   SUNNY     64  51  60 S9        30.17S
LANSING        SUNNY     63  48  58 S13       30.10F
LAPEER         FAIR      63  50  61 S12       30.15F
MASON          SUNNY     63  50  62 S12G17    30.12S
MONROE         SUNNY     63  51  65 S10       30.17S
MT. CLEMENS    MOSUNNY   63  60  88 S12       30.17R
PONTIAC        PTSUNNY   61  52  72 S13       30.16S
PORT HOPE        N/A     63  50  62 VRB7      30.12R
PORT HURON     SUNNY     64  55  72 S7        30.19S
TRI CITIES     SUNNY     64  50  60 S15       30.08F
MIDLAND        FAIR      64  49  58 SE7       30.07S
TROY           SUNNY     62  54  74 S7        30.18F
SAGINAW HB     SUNNY     63  48  59 S12       30.08F
$$
MIZ043>046-050>051-056>058-064>065-071>073-077>080-221500-
SOUTHWEST LOWER MICHIGAN

CITY           SKY/WX    TMP DP  RH WIND       PRES   REMARKS
BATTLE CREEK   SUNNY     65  52  62 S13       30.09S
BENTON HARBOR    N/A     65  52  62 MISG      30.02S
BIG RAPIDS     SUNNY     62  48  59 S12G21    30.03S
COLDWATER      SUNNY     63  49  62 S8        30.11S
FREMONT        CLOUDY    65  52  63 S8G16     30.00S
HOLLAND        PTSUNNY   66  52  60 S14       30.02R
GRAND RAPIDS   MOSUNNY   67  53  61 S16       30.04S
IONIA          FAIR      64  49  56 S16       30.07R
KALAMAZOO      SUNNY     66  51  58 S12G20    30.08R
LUDINGTON      CLOUDY    64  54  68 S9        29.96S
MARSHALL       MOSUNNY   62  50  63 S9        30.11R
MOUNT PLEASANT CLOUDY    67  48  51 S9        30.05S
MUSKEGON       CLOUDY    65  52  62 SE12      30.00R
SOUTH HAVEN    PTSUNNY   68  53  58 S12G22    30.02S
$$
MIZ016>042-221500-
NORTHERN LOWER MICHIGAN

CITY           SKY/WX    TMP DP  RH WIND       PRES   REMARKS
ALPENA         SUNNY     64  51  62 S12       30.07S
BEAVER ISLAND  MOSUNNY   66  54  65 S14       29.94R
BELLAIRE       PTSUNNY   64  51  62 S12G17    29.98S
CADILLAC       SUNNY     65  50  59 S10       30.01S
CHARLEVOIX     SUNNY     67  54  63 S10       29.98S
FRANKFORT      SUNNY     68  55  64 S13       29.95R
GAYLORD        SUNNY     61  49  64 S12       30.02S
GRAYLING       SUNNY     62  48  60 S13       30.04S
HARBOR SPRINGS MOSUNNY   66  52  59 CALM      29.97F
HOUGHTON LAKE  SUNNY     62  48  60 S13       30.05F
MANISTEE       PTSUNNY   65  54  67 S10       29.96R
OSCODA         SUNNY     64  49  56 S13G20    30.09S
PELLSTON       SUNNY     67  53  61 S9        29.98R
ROGERS CITY    SUNNY     63  50  62 S13G21    30.03F
TRAVERSE CITY  MOSUNNY   67  53  61 S8        29.95S
$$
MIZ007>008-015-221500-
EASTERN UPPER MICHIGAN

CITY           SKY/WX    TMP DP  RH WIND       PRES   REMARKS
KINROSS        CLOUDY    62  52  69 S12       29.97S
MACKINAC ISLAN PTSUNNY   62  50  63 S12G20    29.97S
NEWBERRY       CLOUDY    61  56  83 S15       29.92S
S. S. MARIE    PTSUNNY   62  53  72 SE9       29.97S
MUNISING         N/A     64  57  78 S13G21    29.84R
$$
MIZ004>006-011>014-085-221500-
CENTRAL UPPER MICHIGAN

CITY           SKY/WX    TMP DP  RH WIND       PRES   REMARKS
MANISTIQUE     CLOUDY    61  55  81 S10G17    29.90S
ESCANABA       PTSUNNY   60  56  86 S14G20    29.87R
MENOMINEE      LGT RAIN  63  57  81 S9        29.87R
SAWYER-GWINN   CLOUDY    57  55  94 S12       29.85R
$$
MIZ001>003-009>011-084-221500-
WESTERN UPPER MICHIGAN

CITY           SKY/WX    TMP DP  RH WIND       PRES   REMARKS
IRON MOUNTAIN  CLOUDY    62  56  80 S6        29.84R
HOUGHTON       CLOUDY    52  48  86 W21G26    29.83R
COPPER HARBOR    N/A     56  48  74 NW8       29.81R
IRONWOOD       LGT RAIN  49  45  86 SW9       29.88R
$$

ABBREVIATIONS USED IN REMARKS
   TC - TEMPERATURE IN CELSIUS
  WCI - WIND CHILL INDEX
   HX - HEAT INDEX
  VSB - VISIBILITY





USA.gov is the U.S. government's official web portal to all federal, state and local government web resources and services.